GIA210 OMDB-OERK

Flight info

Callsign GIA210
Flight time 1h 18m
Altitude 32000
Route SENPA2F SENPA N571 ALPOB L768 ULADA T136 OTISU N112 GETOT Q212 ASNUM ASNUM1F
Aircraft B77W/H-SDE1E2E3FGHIJ2J3J4J5M1RWXY/LB1D1

Departure

Time 2026-04-23 11:04
Airport Dubai International Airport (OMDB)

Arrival

Time 2026-04-23 12:22
Airport King Khalid International Airport (OERK)
Time Latitude Longitude Altitude Speed Heading
2026-04-23 10:45 25.25218 55.38027 37 ft 0 kts 34°
2026-04-23 10:52 25.25205 55.38018 35 ft 3 kts 39°
2026-04-23 10:52 25.25193 55.38001 37 ft 3 kts 77°
2026-04-23 10:52 25.25193 55.37980 35 ft 3 kts 114°
2026-04-23 10:53 25.25194 55.37975 36 ft 0 kts 125°
2026-04-23 10:55 25.25160 55.38029 37 ft 21 kts 125°
2026-04-23 10:56 25.24983 55.38188 38 ft 44 kts 165°
2026-04-23 10:56 25.24876 55.38199 38 ft 0 kts 186°
2026-04-23 11:01 25.24864 55.38197 41 ft 4 kts 190°
2026-04-23 11:01 25.24825 55.38183 40 ft 8 kts 204°
2026-04-23 11:02 25.24776 55.38130 42 ft 13 kts 250°
2026-04-23 11:02 25.24781 55.38074 40 ft 0 kts 290°
2026-04-23 11:03 25.24915 55.37839 38 ft 94 kts 302°
2026-04-23 11:03 25.25456 55.36831 45 ft 203 kts 301°
2026-04-23 11:04 25.26162 55.35500 1180 ft 207 kts 305°
2026-04-23 11:04 25.26958 55.34091 2473 ft 229 kts 303°
2026-04-23 11:04 25.27836 55.32540 3267 ft 245 kts 300°
2026-04-23 11:04 25.28779 55.30862 3873 ft 267 kts 300°
2026-04-23 11:05 25.29628 55.29030 3990 ft 272 kts 281°
2026-04-23 11:05 25.29790 55.26963 4014 ft 268 kts 269°
2026-04-23 11:05 25.29838 55.24917 4327 ft 265 kts 271°
2026-04-23 11:05 25.29985 55.22875 5365 ft 270 kts 274°
2026-04-23 11:06 25.30379 55.18732 7664 ft 273 kts 272°
2026-04-23 11:06 25.30423 55.16630 8731 ft 275 kts 264°
2026-04-23 11:06 25.30256 55.14514 9818 ft 278 kts 261°
2026-04-23 11:07 25.30041 55.12368 10738 ft 288 kts 261°
2026-04-23 11:07 25.29815 55.10061 11123 ft 318 kts 261°
2026-04-23 11:07 25.29583 55.07504 11454 ft 346 kts 262°
2026-04-23 11:07 25.29363 55.04815 12332 ft 356 kts 262°
2026-04-23 11:08 25.29154 55.02072 13389 ft 361 kts 262°
2026-04-23 11:08 25.28959 54.99463 14312 ft 361 kts 263°
2026-04-23 11:08 25.28875 54.96680 14920 ft 365 kts 270°
2026-04-23 11:08 25.29169 54.93867 15570 ft 371 kts 277°
2026-04-23 11:09 25.29670 54.91052 16610 ft 374 kts 279°
2026-04-23 11:09 25.30191 54.88245 17795 ft 373 kts 279°
2026-04-23 11:09 25.30680 54.85424 18785 ft 375 kts 278°
2026-04-23 11:09 25.31119 54.82552 19550 ft 383 kts 277°
2026-04-23 11:10 25.31509 54.79613 20320 ft 390 kts 276°
2026-04-23 11:10 25.31758 54.77629 20868 ft 394 kts 276°
2026-04-23 11:10 25.32266 54.73593 21980 ft 400 kts 276°
2026-04-23 11:10 25.32659 54.70569 22795 ft 405 kts 277°
2026-04-23 11:11 25.33075 54.67470 23530 ft 411 kts 277°
2026-04-23 11:11 25.33509 54.64330 24192 ft 415 kts 277°
2026-04-23 11:11 25.33803 54.62239 24673 ft 416 kts 277°
2026-04-23 11:11 25.34406 54.57993 25689 ft 419 kts 277°
2026-04-23 11:12 25.34861 54.54802 26400 ft 422 kts 277°
2026-04-23 11:12 25.35164 54.52678 26845 ft 424 kts 278°
2026-04-23 11:12 25.35625 54.49450 27540 ft 426 kts 278°
2026-04-23 11:12 25.36083 54.46230 28453 ft 422 kts 278°
2026-04-23 11:13 25.36538 54.43036 29536 ft 416 kts 278°
2026-04-23 11:13 25.36983 54.39894 30455 ft 412 kts 278°
2026-04-23 11:13 25.37423 54.36779 31233 ft 409 kts 278°
2026-04-23 11:13 25.37861 54.33671 31860 ft 410 kts 278°
2026-04-23 11:14 25.38298 54.30565 32026 ft 408 kts 278°
2026-04-23 11:14 25.39170 54.24362 32023 ft 408 kts 278°
2026-04-23 11:15 25.40039 54.18171 32024 ft 407 kts 278°
2026-04-23 11:15 25.40903 54.11988 32028 ft 406 kts 278°
2026-04-23 11:16 25.41764 54.05809 32033 ft 407 kts 278°
2026-04-23 11:16 25.42597 53.99812 32037 ft 412 kts 278°
2026-04-23 11:16 25.43031 53.96674 32048 ft 424 kts 278°
2026-04-23 11:17 25.43482 53.93400 32046 ft 435 kts 278°
2026-04-23 11:17 25.44411 53.86649 32047 ft 452 kts 278°
2026-04-23 11:18 25.45370 53.79665 32052 ft 465 kts 278°
2026-04-23 11:18 25.46342 53.72568 32033 ft 465 kts 278°
2026-04-23 11:19 25.47303 53.65522 32027 ft 462 kts 278°
2026-04-23 11:19 25.48257 53.58501 32035 ft 460 kts 278°
2026-04-23 11:20 25.49206 53.51495 32040 ft 461 kts 278°
2026-04-23 11:20 25.50150 53.44500 32049 ft 463 kts 278°
2026-04-23 11:21 25.51101 53.37423 32047 ft 465 kts 278°
2026-04-23 11:21 25.52051 53.30322 32041 ft 467 kts 278°
2026-04-23 11:22 25.53000 53.23206 32043 ft 467 kts 278°
2026-04-23 11:22 25.53944 53.16099 32043 ft 466 kts 278°
2026-04-23 11:23 25.54883 53.09002 32043 ft 465 kts 278°
2026-04-23 11:23 25.55817 53.01919 32049 ft 464 kts 278°
2026-04-23 11:24 25.56718 52.95059 32054 ft 463 kts 278°
2026-04-23 11:24 25.57642 52.87995 32067 ft 463 kts 278°
2026-04-23 11:25 25.58558 52.80988 32057 ft 463 kts 278°
2026-04-23 11:25 25.59481 52.73878 32061 ft 463 kts 278°
2026-04-23 11:26 25.60393 52.66817 32064 ft 463 kts 278°
2026-04-23 11:26 25.61298 52.59792 32063 ft 463 kts 278°
2026-04-23 11:27 25.62205 52.52724 32066 ft 463 kts 278°
2026-04-23 11:27 25.63108 52.45662 32069 ft 463 kts 278°
2026-04-23 11:28 25.64007 52.38605 32069 ft 462 kts 278°
2026-04-23 11:28 25.64902 52.31555 32073 ft 462 kts 278°
2026-04-23 11:29 25.65793 52.24505 32074 ft 461 kts 278°
2026-04-23 11:29 25.66679 52.17463 32080 ft 461 kts 278°
2026-04-23 11:30 25.67560 52.10432 32085 ft 461 kts 278°
2026-04-23 11:30 25.68439 52.03394 32074 ft 460 kts 278°
2026-04-23 11:31 25.69287 51.96575 32086 ft 460 kts 278°
2026-04-23 11:31 25.70159 51.89540 32078 ft 460 kts 277°
2026-04-23 11:32 25.71024 51.82527 32078 ft 459 kts 277°
2026-04-23 11:32 25.71888 51.75497 32075 ft 459 kts 277°
2026-04-23 11:33 25.72751 51.68467 32073 ft 460 kts 277°
2026-04-23 11:33 25.73608 51.61438 32076 ft 461 kts 277°
2026-04-23 11:34 25.74463 51.54387 32074 ft 461 kts 277°
2026-04-23 11:34 25.75315 51.47328 32079 ft 461 kts 277°
2026-04-23 11:35 25.76162 51.40292 32080 ft 461 kts 277°
2026-04-23 11:35 25.77007 51.33243 32079 ft 461 kts 277°
2026-04-23 11:36 25.77840 51.26255 32083 ft 459 kts 277°
2026-04-23 11:36 25.78676 51.19230 32083 ft 459 kts 277°
2026-04-23 11:37 25.79512 51.12199 32085 ft 460 kts 277°
2026-04-23 11:37 25.80343 51.05154 32085 ft 461 kts 277°
2026-04-23 11:38 25.81147 50.98300 32086 ft 461 kts 277°
2026-04-23 11:38 25.81972 50.91237 32090 ft 461 kts 277°
2026-04-23 11:39 25.82793 50.84174 32098 ft 461 kts 277°
2026-04-23 11:39 25.83610 50.77125 32092 ft 460 kts 277°
2026-04-23 11:40 25.84424 50.70080 32096 ft 459 kts 277°
2026-04-23 11:40 25.85233 50.63048 32110 ft 459 kts 277°
2026-04-23 11:41 25.86041 50.55998 32098 ft 460 kts 277°
2026-04-23 11:41 25.86840 50.48987 32095 ft 461 kts 276°
2026-04-23 11:42 25.87640 50.41924 32098 ft 461 kts 277°
2026-04-23 11:42 25.88437 50.34854 32100 ft 460 kts 277°
2026-04-23 11:43 25.89228 50.27816 32099 ft 459 kts 277°
2026-04-23 11:43 25.90017 50.20778 32103 ft 458 kts 277°
2026-04-23 11:44 25.90800 50.13757 32104 ft 457 kts 277°
2026-04-23 11:44 25.91577 50.06771 32111 ft 456 kts 276°
2026-04-23 11:45 25.92339 49.99867 32113 ft 459 kts 276°
2026-04-23 11:45 25.93101 49.92942 32106 ft 457 kts 276°
2026-04-23 11:46 25.93865 49.85963 32116 ft 455 kts 276°
2026-04-23 11:46 25.94624 49.78993 32106 ft 454 kts 276°
2026-04-23 11:47 25.95374 49.72082 32131 ft 454 kts 276°
2026-04-23 11:47 25.96130 49.65079 32082 ft 457 kts 276°
2026-04-23 11:48 25.96883 49.58078 32120 ft 455 kts 276°
2026-04-23 11:48 25.97630 49.51109 32122 ft 455 kts 276°
2026-04-23 11:48 25.98005 49.47595 31904 ft 459 kts 275°
2026-04-23 11:49 25.98379 49.44078 31527 ft 458 kts 275°
2026-04-23 11:49 25.98751 49.40582 31168 ft 454 kts 275°
2026-04-23 11:49 25.99119 49.37107 30805 ft 451 kts 275°
2026-04-23 11:49 25.99484 49.33655 30454 ft 449 kts 275°
2026-04-23 11:50 25.99847 49.30212 30108 ft 448 kts 276°
2026-04-23 11:50 26.00207 49.26787 29728 ft 446 kts 275°
2026-04-23 11:50 26.00564 49.23364 29329 ft 445 kts 275°
2026-04-23 11:50 26.00921 49.19953 28935 ft 444 kts 275°
2026-04-23 11:51 26.01277 49.16543 28551 ft 443 kts 275°
2026-04-23 11:51 26.01631 49.13145 28167 ft 441 kts 275°
2026-04-23 11:51 26.01982 49.09779 27785 ft 438 kts 275°
2026-04-23 11:51 26.02331 49.06420 27415 ft 436 kts 275°
2026-04-23 11:52 26.02677 49.03079 27053 ft 433 kts 275°
2026-04-23 11:52 26.03009 48.99869 26694 ft 430 kts 275°
2026-04-23 11:52 26.03340 48.96672 26336 ft 427 kts 275°
2026-04-23 11:52 26.03675 48.93408 25977 ft 424 kts 275°
2026-04-23 11:53 26.04008 48.90160 25629 ft 421 kts 275°
2026-04-23 11:53 26.04337 48.86940 25281 ft 418 kts 275°
2026-04-23 11:53 26.04665 48.83732 24932 ft 415 kts 275°
2026-04-23 11:53 26.04988 48.80557 24594 ft 412 kts 275°
2026-04-23 11:54 26.05309 48.77399 24269 ft 410 kts 275°
2026-04-23 11:54 26.05628 48.74254 24168 ft 409 kts 275°
2026-04-23 11:54 26.05838 48.72169 24169 ft 408 kts 275°
2026-04-23 11:54 26.06155 48.69037 24163 ft 408 kts 275°
2026-04-23 11:55 26.06471 48.65900 24161 ft 409 kts 275°
2026-04-23 11:55 26.06787 48.62751 24171 ft 410 kts 275°
2026-04-23 11:55 26.07104 48.59602 24169 ft 410 kts 275°
2026-04-23 11:55 26.07419 48.56454 24177 ft 409 kts 275°
2026-04-23 11:56 26.07734 48.53306 24180 ft 409 kts 275°
2026-04-23 11:56 26.08048 48.50160 24191 ft 409 kts 275°
2026-04-23 11:56 26.08362 48.47011 24187 ft 410 kts 274°
2026-04-23 11:56 26.08675 48.43855 24185 ft 410 kts 274°
2026-04-23 11:57 26.08987 48.40702 24178 ft 411 kts 274°
2026-04-23 11:57 26.09296 48.37580 24185 ft 411 kts 274°
2026-04-23 11:57 26.09608 48.34420 24183 ft 411 kts 274°
2026-04-23 11:57 26.09919 48.31256 24182 ft 411 kts 274°
2026-04-23 11:58 26.10201 48.28109 24189 ft 403 kts 272°
2026-04-23 11:58 26.10271 48.24989 24196 ft 405 kts 267°
2026-04-23 11:58 26.09991 48.21867 24201 ft 407 kts 260°
2026-04-23 11:58 26.09345 48.18773 24206 ft 415 kts 255°
2026-04-23 11:59 26.08560 48.15674 24194 ft 415 kts 255°
2026-04-23 11:59 26.07779 48.12588 24192 ft 412 kts 255°
2026-04-23 11:59 26.07058 48.09512 24187 ft 410 kts 256°
2026-04-23 11:59 26.06406 48.06437 24190 ft 408 kts 257°
2026-04-23 12:00 26.05822 48.03361 24186 ft 406 kts 259°
2026-04-23 12:00 26.05285 48.00277 24189 ft 406 kts 259°
2026-04-23 12:00 26.04771 47.97345 24195 ft 407 kts 259°
2026-04-23 12:00 26.04205 47.94255 24217 ft 408 kts 258°
2026-04-23 12:01 26.03611 47.91162 24197 ft 410 kts 258°
2026-04-23 12:01 26.03000 47.88104 24200 ft 411 kts 258°
2026-04-23 12:01 26.02365 47.85000 24204 ft 412 kts 257°
2026-04-23 12:01 26.01721 47.81898 24205 ft 413 kts 257°
2026-04-23 12:02 26.01005 47.78804 24199 ft 413 kts 254°
2026-04-23 12:02 26.00079 47.75824 24189 ft 405 kts 249°
2026-04-23 12:02 25.98872 47.72983 24198 ft 410 kts 243°
2026-04-23 12:02 25.97275 47.70329 24215 ft 420 kts 233°
2026-04-23 12:03 25.95211 47.67993 24195 ft 427 kts 224°
2026-04-23 12:03 25.92788 47.66069 24195 ft 428 kts 217°
2026-04-23 12:03 25.90216 47.64376 23861 ft 431 kts 214°
2026-04-23 12:03 25.87590 47.62760 23246 ft 430 kts 213°
2026-04-23 12:04 25.84975 47.61187 22594 ft 425 kts 213°
2026-04-23 12:04 25.82387 47.59642 21959 ft 419 kts 213°
2026-04-23 12:04 25.79834 47.58126 21323 ft 414 kts 213°
2026-04-23 12:04 25.77308 47.56630 20708 ft 409 kts 213°
2026-04-23 12:05 25.74813 47.55154 20115 ft 404 kts 213°
2026-04-23 12:05 25.72349 47.53693 19519 ft 399 kts 213°
2026-04-23 12:05 25.69912 47.52243 18946 ft 395 kts 213°
2026-04-23 12:05 25.67503 47.50806 18379 ft 391 kts 213°
2026-04-23 12:06 25.65156 47.49401 17766 ft 387 kts 213°
2026-04-23 12:06 25.62780 47.47977 17392 ft 380 kts 213°
2026-04-23 12:06 25.58163 47.45118 16644 ft 381 kts 214°
2026-04-23 12:07 25.55861 47.43673 16198 ft 379 kts 214°
2026-04-23 12:07 25.53585 47.42239 15762 ft 374 kts 214°
2026-04-23 12:07 25.51337 47.40819 15356 ft 369 kts 214°
2026-04-23 12:07 25.49114 47.39411 15187 ft 368 kts 214°
2026-04-23 12:08 25.46895 47.37998 15038 ft 364 kts 214°
2026-04-23 12:08 25.44730 47.36558 14758 ft 363 kts 215°
2026-04-23 12:08 25.42587 47.35081 14396 ft 364 kts 216°
2026-04-23 12:08 25.40450 47.33586 14054 ft 362 kts 216°
2026-04-23 12:09 25.38317 47.32100 13715 ft 366 kts 215°
2026-04-23 12:09 25.36128 47.30660 13335 ft 365 kts 213°
2026-04-23 12:09 25.33939 47.29262 12944 ft 360 kts 213°
2026-04-23 12:09 25.31781 47.27892 12578 ft 355 kts 213°
2026-04-23 12:10 25.29651 47.26543 12209 ft 352 kts 213°
2026-04-23 12:10 25.27530 47.25200 11838 ft 350 kts 213°
2026-04-23 12:10 25.25423 47.23864 11469 ft 348 kts 213°
2026-04-23 12:10 25.23327 47.22533 11115 ft 347 kts 213°
2026-04-23 12:11 25.21242 47.21205 10758 ft 346 kts 213°
2026-04-23 12:11 25.19157 47.19873 10397 ft 345 kts 213°
2026-04-23 12:11 25.17094 47.18549 10058 ft 340 kts 213°
2026-04-23 12:11 25.15098 47.17263 9670 ft 333 kts 213°
2026-04-23 12:12 25.13117 47.15965 9181 ft 330 kts 212°
2026-04-23 12:12 25.11167 47.14646 8670 ft 327 kts 212°
2026-04-23 12:12 25.09250 47.13310 8188 ft 324 kts 213°
2026-04-23 12:12 25.07365 47.11963 7715 ft 322 kts 213°
2026-04-23 12:13 25.05473 47.10582 7232 ft 321 kts 212°
2026-04-23 12:13 25.03642 47.09218 6746 ft 307 kts 213°
2026-04-23 12:13 25.01956 47.07922 6252 ft 285 kts 213°
2026-04-23 12:13 25.00406 47.06701 5745 ft 270 kts 212°
2026-04-23 12:14 24.98924 47.05502 5236 ft 262 kts 213°
2026-04-23 12:14 24.97488 47.04321 4766 ft 253 kts 212°
2026-04-23 12:14 24.96106 47.03166 4251 ft 244 kts 214°
2026-04-23 12:14 24.94803 47.02078 4035 ft 226 kts 212°
2026-04-23 12:15 24.93612 47.01046 3970 ft 214 kts 213°
2026-04-23 12:15 24.92437 47.00030 3960 ft 216 kts 213°
2026-04-23 12:15 24.91340 46.99081 3988 ft 209 kts 212°
2026-04-23 12:15 24.90207 46.98101 3973 ft 208 kts 218°
2026-04-23 12:16 24.89416 46.96719 3970 ft 219 kts 244°
2026-04-23 12:16 24.88836 46.95171 3975 ft 217 kts 245°
2026-04-23 12:16 24.88229 46.93647 3977 ft 218 kts 243°
2026-04-23 12:16 24.87601 46.92125 3983 ft 215 kts 244°
2026-04-23 12:17 24.86961 46.90628 3989 ft 216 kts 242°
2026-04-23 12:17 24.86341 46.89140 3970 ft 211 kts 244°
2026-04-23 12:17 24.85708 46.87657 3975 ft 215 kts 243°
2026-04-23 12:17 24.85076 46.86157 3983 ft 217 kts 243°
2026-04-23 12:18 24.84476 46.84620 3980 ft 221 kts 248°
2026-04-23 12:18 24.84032 46.83007 3992 ft 219 kts 250°
2026-04-23 12:18 24.83506 46.81470 3980 ft 212 kts 251°
2026-04-23 12:18 24.83516 46.79922 3958 ft 205 kts 298°
2026-04-23 12:19 24.84437 46.78783 4017 ft 198 kts 323°
2026-04-23 12:19 24.85491 46.77819 4026 ft 195 kts 325°
2026-04-23 12:19 24.86668 46.77090 3876 ft 195 kts 339°
2026-04-23 12:19 24.87876 46.76430 3622 ft 193 kts 338°
2026-04-23 12:20 24.89028 46.75706 3386 ft 189 kts 336°
2026-04-23 12:20 24.90159 46.74985 3152 ft 187 kts 337°
2026-04-23 12:20 24.91282 46.74273 2880 ft 183 kts 337°
2026-04-23 12:20 24.92319 46.73610 2613 ft 161 kts 336°
2026-04-23 12:21 24.93235 46.73027 2404 ft 144 kts 332°
2026-04-23 12:21 24.94080 46.72519 2161 ft 136 kts 329°
2026-04-23 12:21 24.94864 46.72001 2051 ft 114 kts 317°
2026-04-23 12:21 24.95265 46.71688 2048 ft 52 kts 329°
2026-04-23 12:22 24.95497 46.71475 2039 ft 27 kts 283°
2026-04-23 12:22 24.95497 46.71458 2040 ft 0 kts 261°
2026-04-23 12:22 24.95494 46.71453 2040 ft 2 kts 248°
2026-04-23 12:22 24.95492 46.71449 2044 ft 0 kts 242°
2026-04-23 12:23 24.95486 46.71440 2038 ft 4 kts 237°
2026-04-23 12:23 24.95468 46.71390 2045 ft 9 kts 246°
2026-04-23 12:24 24.95444 46.71318 2045 ft 12 kts 250°
2026-04-23 12:24 24.95433 46.71290 2046 ft 0 kts 250°
2026-04-23 12:25 24.95428 46.71277 2045 ft 5 kts 244°
2026-04-23 12:25 24.95398 46.71231 2047 ft 9 kts 225°
2026-04-23 12:25 24.95397 46.71154 2043 ft 12 kts 308°
2026-04-23 12:26 24.95467 46.71085 2045 ft 15 kts 325°
2026-04-23 12:26 24.95555 46.71021 2046 ft 15 kts 329°
2026-04-23 12:26 24.95655 46.70974 2044 ft 17 kts 332°
2026-04-23 12:26 24.95761 46.70908 2044 ft 18 kts 333°
2026-04-23 12:27 24.95855 46.70823 2042 ft 0 kts 298°
2026-04-23 12:27 24.95856 46.70794 2040 ft 7 kts 259°
2026-04-23 12:27 24.95842 46.70757 2040 ft 0 kts 241°